Weather History for KBDE - July, 2013

Change the Weather History Date:

Monday, July 15, 2013

  Actual Average Record
Temperature  
Mean Temperature 72 °F -  
Max Temperature 82 °F 80 °F 96 °F (1983)
Min Temperature 63 °F 56 °F 41 °F (1939)
Cooling Degree Days 8    
Growing Degree Days 22 (Base 50)    
Moisture  
Dew Point 66 °F    
Average Humidity 85    
Maximum Humidity 100    
Minimum Humidity 60    
Precipitation  
Precipitation 0.00 in - - ()
Sea Level Pressure  
Sea Level Pressure 30.19 in    
Wind  
Wind Speed 3 mph (South)    
Max Wind Speed 15 mph    
Max Gust Speed 23 mph    
Visibility 8 miles    
Events Fog    
Averages and records for this station are not official NWS values.
T = Trace of Precipitation, MM = Missing Value Source: NWS Daily Summary

Daily Weather History Graph

Daily Weather History Graph

Search for Another Location

Airport or City:

Trip Planner

Search our weather history database for the weather conditions in past years. The results will help you decide how hot, cold, wet, or windy it might be!

Date:

Astronomy

Jul. 15, 2013 Rise Set
Actual Time 5:31 AM CDT 9:16 PM CDT
Civil Twilight 4:51 AM CDT 9:56 PM CDT
Nautical Twilight 3:56 AM CDT 10:50 PM CDT
Astronomical Twilight 2:35 AM CDT 12:10 AM CDT
Moon 1:34 PM CDT (7/15) No Moon Set
Length of Visible Light 17h 04m
Length of Day
15h 44m
Waxing Crescent, 45% of the Moon is Illuminated
Jul 15
Waxing Crescent
Jul 15
First Quarter
Jul 22
Full
Jul 29
Last Quarter
Aug 6
New

Hourly Weather History & Observations

Time (CDT) Temp. Heat Index Dew Point Humidity Pressure Visibility Wind Dir Wind Speed Gust Speed Precip Events Conditions
12:53 AM 66.9 °F - 64.9 °F 93% 30.20 in 10.0 mi Calm Calm - N/A   Overcast
1:53 AM 66.0 °F - 64.0 °F 93% 30.20 in 10.0 mi Calm Calm - N/A   Mostly Cloudy
2:53 AM 64.9 °F - 64.0 °F 97% 30.19 in 10.0 mi Calm Calm - N/A   Clear
3:53 AM 64.9 °F - 64.0 °F 97% 30.20 in 10.0 mi Calm Calm - N/A   Clear
4:10 AM 64.4 °F - 62.6 °F 94% 30.19 in 10.0 mi Calm Calm - N/A   Scattered Clouds
4:53 AM 63.0 °F - 63.0 °F 100% 30.20 in 10.0 mi SE 4.6 mph - N/A   Clear
5:02 AM 64.4 °F - 64.4 °F 100% 30.20 in 10.0 mi SSE 3.5 mph - N/A   Scattered Clouds
5:11 AM 64.4 °F - 64.4 °F 100% 30.20 in 10.0 mi Calm Calm - N/A   Mostly Cloudy
5:24 AM 66.2 °F - 64.4 °F 94% 30.20 in 5.0 mi SE 4.6 mph - N/A   Overcast
5:32 AM 64.4 °F - 64.4 °F 100% 30.20 in 1.8 mi Calm Calm - N/A   Overcast
5:36 AM 64.4 °F - 64.4 °F 100% 30.20 in 1.0 mi Calm Calm - N/A   Overcast
5:43 AM 64.4 °F - 64.4 °F 100% 30.21 in 0.2 mi Calm Calm - N/A Fog Fog
5:53 AM 64.9 °F - 64.9 °F 100% 30.21 in 0.2 mi Calm Calm - N/A Fog Fog
6:27 AM 66.2 °F - 66.2 °F 100% 30.21 in 1.2 mi Calm Calm - N/A   Overcast
6:32 AM 66.2 °F - 66.2 °F 100% 30.21 in 2.0 mi Calm Calm - N/A   Overcast
6:41 AM 66.2 °F - 66.2 °F 100% 30.21 in 4.0 mi Calm Calm - N/A   Overcast
6:53 AM 66.0 °F - 66.0 °F 100% 30.21 in 5.0 mi Calm Calm - N/A   Overcast
7:53 AM 68.0 °F - 66.9 °F 96% 30.22 in 8.0 mi Calm Calm - N/A   Overcast
8:53 AM 71.1 °F - 68.0 °F 90% 30.22 in 10.0 mi SSW 6.9 mph - N/A   Overcast
9:02 AM 71.6 °F - 69.8 °F 94% 30.22 in 10.0 mi SSW 4.6 mph - N/A   Overcast
9:24 AM 73.4 °F - 69.8 °F 88% 30.22 in 10.0 mi Variable 3.5 mph - N/A   Mostly Cloudy
9:50 AM 75.2 °F - 69.8 °F 83% 30.21 in 10.0 mi SE 4.6 mph - N/A   Mostly Cloudy
9:53 AM 75.9 °F - 69.1 °F 79% 30.20 in 10.0 mi Variable 5.8 mph - N/A   Mostly Cloudy
10:06 AM 75.2 °F - 68.0 °F 78% 30.21 in 10.0 mi South 5.8 mph - N/A   Scattered Clouds
10:18 AM 75.2 °F - 69.8 °F 83% 30.21 in 10.0 mi South 5.8 mph - N/A   Mostly Cloudy
10:53 AM 75.0 °F - 68.0 °F 79% 30.20 in 10.0 mi South 3.5 mph - N/A   Mostly Cloudy
11:05 AM 78.8 °F - 69.8 °F 74% 30.21 in 10.0 mi SE 4.6 mph - N/A   Scattered Clouds
11:53 AM 78.1 °F - 68.0 °F 71% 30.20 in 10.0 mi SE 4.6 mph - N/A   Clear
12:42 PM 78.8 °F - 68.0 °F 69% 30.19 in 10.0 mi South 6.9 mph - N/A   Mostly Cloudy
12:53 PM 80.1 °F 82.7 °F 68.0 °F 67% 30.19 in 10.0 mi South 5.8 mph - N/A   Mostly Cloudy
1:53 PM 82.0 °F 84.9 °F 68.0 °F 62% 30.17 in 10.0 mi South 6.9 mph - N/A   Partly Cloudy
2:53 PM 81.0 °F 83.8 °F 68.0 °F 65% 30.16 in 10.0 mi SSE 8.1 mph - N/A   Mostly Cloudy
3:53 PM 82.0 °F 84.9 °F 68.0 °F 62% 30.16 in 10.0 mi South 15.0 mph 20.7 mph N/A   Clear
4:53 PM 82.0 °F 84.5 °F 66.9 °F 60% 30.15 in 10.0 mi South 12.7 mph 18.4 mph N/A   Partly Cloudy
5:53 PM 81.0 °F 84.1 °F 69.1 °F 67% 30.14 in 10.0 mi South 12.7 mph - N/A   Mostly Cloudy
6:53 PM 77.0 °F - 68.0 °F 74% 30.14 in 10.0 mi South 13.8 mph 23.0 mph N/A   Scattered Clouds
7:53 PM 75.9 °F - 66.9 °F 74% 30.13 in 10.0 mi South 11.5 mph - N/A   Mostly Cloudy
8:53 PM 73.0 °F - 64.9 °F 76% 30.12 in 10.0 mi South 5.8 mph - N/A   Mostly Cloudy
9:53 PM 72.0 °F - 64.0 °F 76% 30.11 in 10.0 mi South 4.6 mph - N/A   Overcast
10:53 PM 71.1 °F - 63.0 °F 75% 30.11 in 10.0 mi South 8.1 mph - N/A   Overcast
11:53 PM 71.1 °F - 64.9 °F 81% 30.11 in 10.0 mi South 6.9 mph - N/A   Overcast